Waarnemingen

Advertentie
Mijn weer
Beauvechain, België (6458): temperatuur & dauwpunt: 03.12.2018 21:00:00 - 09.12.2018 21:00:00 (CET)Beauvechain, België (6458): windsnelheid & windstoten: 03.12.2018 21:00:00 - 09.12.2018 21:00:00 (CET)Beauvechain, België (6458): windrichting: 03.12.2018 21:00:00 - 09.12.2018 21:00:00 (CET)Beauvechain, België (6458): luchtdruk: 03.12.2018 21:00:00 - 09.12.2018 21:00:00 (CET)Beauvechain, België (6458): zicht: 03.12.2018 21:00:00 - 09.12.2018 21:00:00 (CET)
Datum & Tijd tt [°C] td [°C] ff [km/u] ff [kn] fx [km/u] fx [kn] dd ppp [hPa] vv [km]
09.12.2018 21:00:00 6,1 2,2 18 10 36 19 W 1016,2 20
09.12.2018 20:00:00 6,8 2,9 22 12 36 19 WNW 1015,1 20
09.12.2018 19:00:00 6,7 4,0 14 8 - - W 1013,8 20
09.12.2018 18:00:00 6,5 4,2 18 10 36 19 WNW 1012,1 10
09.12.2018 17:00:00 7,7 5,0 18 10 50 27 NW 1010,5 20
09.12.2018 16:00:00 8,3 5,2 14 8 - - WNW 1008,6 20
09.12.2018 15:00:00 8,3 6,1 18 10 47 25 WNW 1006,6 10
09.12.2018 14:00:00 8,5 6,4 25 14 47 25 NW 1004,7 11
09.12.2018 13:00:00 8,0 6,2 22 12 - - W 1003,7 20
09.12.2018 12:00:00 8,0 6,3 24 13 50 27 W 1002,7 10
09.12.2018 11:00:00 8,5 5,8 25 14 36 19 WZW 1001,8 18
09.12.2018 10:00:00 7,8 5,9 25 14 - - ZW 1001,5 17
09.12.2018 09:00:00 8,0 5,3 25 14 50 27 WZW 1001,3 15
09.12.2018 08:00:00 8,8 3,8 32 18 54 29 W 1000,6 20
09.12.2018 07:00:00 8,7 3,9 36 19 - - WZW 1000,5 20
09.12.2018 06:00:00 8,8 3,9 32 18 61 33 W 1000,0 20
09.12.2018 05:00:00 9,1 4,6 32 18 61 33 W 999,5 19
09.12.2018 04:00:00 8,7 5,2 29 16 - - WZW 999,1 17
09.12.2018 03:00:00 9,3 4,9 36 19 54 29 WZW 998,6 19
09.12.2018 02:00:00 9,1 5,1 29 16 50 27 W 998,9 18
09.12.2018 01:00:00 9,2 5,5 32 18 - - WZW 998,6 18
09.12.2018 00:00:00 9,5 5,5 40 21 61 33 WZW 998,3 20
08.12.2018 23:00:00 10,3 6,7 36 19 58 31 WZW 998,0 18
08.12.2018 22:00:00 10,2 7,6 40 21 - - WZW 998,1 20
08.12.2018 21:00:00 10,5 8,2 37 20 86 47 WZW 998,4 10
08.12.2018 20:00:00 9,3 8,0 36 19 65 35 ZW 999,3 3,2
08.12.2018 19:00:00 8,9 7,5 36 19 - - ZW 1001,1 12
08.12.2018 18:00:00 8,6 7,2 35 19 58 31 ZW 1003,1 6
08.12.2018 17:00:00 8,6 7,2 32 18 47 25 ZW 1004,6 20
08.12.2018 16:00:00 9,8 5,9 25 14 - - WZW 1005,5 18
08.12.2018 15:00:00 10,0 5,4 32 18 50 27 ZW 1005,8 16
08.12.2018 14:00:00 10,0 4,6 29 16 54 29 WZW 1006,3 20
08.12.2018 13:00:00 9,7 5,2 29 16 - - WZW 1006,3 19
08.12.2018 12:00:00 9,1 5,6 32 18 50 27 WZW 1006,3 19
08.12.2018 11:00:00 8,8 5,0 36 19 50 27 WZW 1006,5 20
08.12.2018 10:00:00 8,1 4,8 40 21 - - ZW 1006,2 20
08.12.2018 09:00:00 7,5 4,7 34 18 54 29 ZW 1006,2 10
08.12.2018 08:00:00 7,1 4,5 32 18 47 25 ZW 1006,2 20
08.12.2018 07:00:00 6,6 4,1 29 16 - - ZW 1006,5 20
08.12.2018 06:00:00 6,1 4,2 32 18 54 29 ZW 1006,7 20
08.12.2018 05:00:00 6,6 3,7 35 19 58 31 ZW 1007,0 10
08.12.2018 04:00:00 6,3 3,6 29 16 - - ZW 1007,3 20
08.12.2018 03:00:00 6,0 3,5 32 18 47 25 ZW 1008,0 20
08.12.2018 02:00:00 6,0 3,2 29 16 47 25 ZW 1008,2 20
08.12.2018 01:00:00 6,1 3,4 29 16 - - ZW 1008,2 20
08.12.2018 00:00:00 6,1 3,3 25 14 36 19 ZW 1008,0 20
07.12.2018 23:00:00 6,4 2,7 29 16 40 21 WZW 1007,3 20
07.12.2018 22:00:00 6,6 2,6 25 14 - - WZW 1006,7 20
07.12.2018 21:00:00 6,8 3,8 25 14 36 19 WZW 1006,2 20
07.12.2018 20:00:00 6,7 4,1 22 12 32 18 WZW 1005,0 20
07.12.2018 19:00:00 6,8 4,0 22 12 - - W 1003,6 10
07.12.2018 18:00:00 8,3 6,4 29 16 43 23 WZW 1001,7 20
07.12.2018 17:00:00 9,0 7,2 29 16 54 29 WZW 1001,1 9
07.12.2018 16:00:00 9,8 8,5 40 21 - - ZZW 999,9 5
07.12.2018 15:00:00 10,0 8,5 36 19 54 29 ZZW 1001,1 7
07.12.2018 14:00:00 11,0 8,2 40 21 54 29 ZZW 1002,3 15
07.12.2018 13:00:00 10,6 9,3 32 18 - - ZZW 1004,5 4,0
07.12.2018 12:00:00 11,1 9,3 32 18 50 27 ZZW 1006,2 15
07.12.2018 11:00:00 10,5 9,6 29 16 43 23 ZZW 1008,2 4,0
07.12.2018 10:00:00 10,6 9,3 32 18 - - ZZW 1009,1 18
07.12.2018 09:00:00 10,3 9,4 32 18 47 25 ZZW 1010,0 4,0
07.12.2018 08:00:00 10,1 9,3 32 18 47 25 ZZW 1010,7 3,5
07.12.2018 07:00:00 10,3 9,4 29 16 - - ZZW 1011,7 5
07.12.2018 06:00:00 10,3 9,4 29 16 40 21 ZZW 1012,2 5
07.12.2018 05:00:00 10,3 9,6 29 16 43 23 ZZW 1013,2 5
07.12.2018 04:00:00 10,6 9,7 29 16 - - ZZW 1014,0 7
07.12.2018 03:00:00 10,6 9,8 29 16 40 21 ZW 1015,0 8
07.12.2018 02:00:00 10,8 9,5 29 16 43 23 ZW 1015,5 18
07.12.2018 01:00:00 10,8 9,5 29 16 - - ZW 1016,1 16
07.12.2018 00:00:00 11,3 9,5 25 14 47 25 ZW 1016,6 6
06.12.2018 23:00:00 11,9 8,7 29 16 47 25 ZW 1016,8 20
06.12.2018 22:00:00 12,1 8,7 29 16 - - WZW 1017,2 20
06.12.2018 21:00:00 12,0 9,8 25 14 43 23 ZW 1017,3 19
06.12.2018 20:00:00 12,1 9,9 29 16 40 21 ZW 1017,3 20
06.12.2018 19:00:00 11,8 9,9 25 14 - - ZW 1017,3 20
06.12.2018 18:00:00 11,8 9,9 25 14 40 21 ZW 1017,5 20
06.12.2018 17:00:00 11,8 10,0 25 14 36 19 ZW 1017,5 10
06.12.2018 16:00:00 11,8 9,9 22 12 - - ZW 1017,7 10
06.12.2018 15:00:00 12,1 9,9 18 10 36 19 ZW 1017,5 15
06.12.2018 14:00:00 11,8 9,9 22 12 36 19 ZW 1017,6 10
06.12.2018 13:00:00 11,8 9,6 18 10 - - ZW 1018,0 15
06.12.2018 12:00:00 11,8 9,8 18 10 29 16 ZW 1018,1 12
06.12.2018 11:00:00 11,3 9,9 18 10 25 14 ZW 1017,7 15
06.12.2018 10:00:00 10,6 9,5 18 10 - - ZW 1017,2 10
06.12.2018 09:00:00 10,8 9,5 14 8 25 14 ZW 1016,5 10
06.12.2018 08:00:00 11,0 9,8 14 8 22 12 WZW 1016,3 12
06.12.2018 07:00:00 11,0 10,0 18 10 - - WZW 1015,3 10
06.12.2018 06:00:00 10,8 9,8 22 12 29 16 WZW 1014,8 10
06.12.2018 05:00:00 10,1 9,5 18 10 29 16 ZW 1014,2 7
06.12.2018 04:00:00 10,1 9,0 22 12 - - ZZW 1014,0 5
06.12.2018 03:00:00 10,1 8,7 21 11 29 16 ZZW 1013,5 10
06.12.2018 02:00:00 10,1 8,2 18 10 29 16 ZZW 1013,7 20
06.12.2018 01:00:00 9,6 8,2 22 12 - - ZZW 1013,7 20
06.12.2018 00:00:00 10,1 7,2 22 12 32 18 ZZW 1014,1 20
05.12.2018 23:00:00 10,1 6,9 14 8 25 14 Z 1014,0 20
05.12.2018 22:00:00 9,6 6,5 14 8 - - Z 1014,2 20
05.12.2018 21:00:00 9,1 6,4 18 10 29 16 Z 1014,7 20
05.12.2018 20:00:00 9,2 6,2 14 8 25 14 Z 1014,8 20
05.12.2018 19:00:00 9,3 6,2 18 10 - - Z 1015,7 20
05.12.2018 18:00:00 9,3 6,2 14 8 29 16 Z 1016,1 20
05.12.2018 17:00:00 9,5 6,5 14 8 25 14 Z 1017,0 20
05.12.2018 16:00:00 9,6 6,5 14 8 - - ZZO 1017,7 20
05.12.2018 15:00:00 9,3 6,2 11 6 22 12 ZZO 1018,7 20
05.12.2018 14:00:00 9,1 5,8 14 8 22 12 Z 1020,0 20
05.12.2018 13:00:00 8,8 5,2 11 6 - - Z 1020,7 20
05.12.2018 12:00:00 8,1 4,4 14 8 25 14 ZZO 1021,7 20
05.12.2018 11:00:00 7,4 3,6 14 8 22 12 ZZO 1022,7 18
05.12.2018 10:00:00 6,3 3,4 13 7 - - ZZO 1023,2 10
05.12.2018 09:00:00 5,1 2,8 11 6 14 8 ZO 1023,8 20
05.12.2018 08:00:00 4,9 2,5 7 4 18 10 ZZO 1024,4 20
05.12.2018 07:00:00 4,5 2,3 9 5 - - ZZO 1024,5 10
05.12.2018 06:00:00 4,4 2,1 11 6 14 8 ZO 1024,7 20
05.12.2018 05:00:00 4,4 1,8 11 6 18 10 ZZO 1024,7 20
05.12.2018 04:00:00 4,4 1,5 14 8 - - ZZO 1025,0 20
05.12.2018 03:00:00 4,0 1,6 11 6 14 8 ZZO 1025,7 20
05.12.2018 02:00:00 4,2 1,5 7 4 14 8 ZO 1025,7 20
05.12.2018 01:00:00 4,9 1,7 7 4 - - ZZO 1026,2 20
05.12.2018 00:00:00 4,6 1,6 4 2 11 6 N 1026,4 20
04.12.2018 23:00:00 5,4 1,8 4 2 4 2 N 1026,4 20
04.12.2018 22:00:00 5,0 1,8 4 2 - - N 1026,2 20
04.12.2018 21:00:00 5,1 1,9 7 4 7 4 N 1026,2 20
04.12.2018 20:00:00 5,7 2,0 4 2 4 2 N 1025,9 20
04.12.2018 19:00:00 6,1 2,3 4 2 - - N 1025,5 20
04.12.2018 18:00:00 6,4 2,2 4 2 4 2 N 1025,5 20
04.12.2018 17:00:00 6,5 2,7 4 2 4 2 N 1025,0 20
04.12.2018 16:00:00 7,3 3,0 4 2 - - N 1024,2 20
04.12.2018 15:00:00 8,3 3,5 4 2 14 8 N 1023,8 20
04.12.2018 14:00:00 7,9 3,2 9 5 18 10 NNW 1023,2 10
04.12.2018 13:00:00 8,3 3,4 7 4 - - WNW 1022,7 20
04.12.2018 12:00:00 7,8 4,3 7 4 14 8 NW 1022,3 20
04.12.2018 11:00:00 6,9 5,5 7 4 11 6 WNW 1022,0 20
04.12.2018 10:00:00 6,0 4,9 7 4 - - WZW 1020,8 15
04.12.2018 09:00:00 5,6 4,8 7 4 11 6 W 1019,6 15
04.12.2018 08:00:00 5,6 4,7 7 4 11 6 WZW 1018,2 15
04.12.2018 07:00:00 6,1 4,9 4 2 - - N 1017,0 15
04.12.2018 06:00:00 6,5 5,0 7 4 18 10 WZW 1015,8 15
04.12.2018 05:00:00 6,8 5,8 7 4 14 8 WZW 1014,7 20
04.12.2018 04:00:00 6,9 6,1 7 4 - - W 1014,0 20
04.12.2018 03:00:00 7,1 6,4 14 8 29 16 W 1013,1 8
04.12.2018 02:00:00 7,4 6,6 11 6 25 14 NW 1011,7 3,0
04.12.2018 01:00:00 8,1 7,1 14 8 - - W 1010,7 20
04.12.2018 00:00:00 8,9 6,2 14 8 47 25 W 1009,2 20
03.12.2018 23:00:00 9,7 7,4 25 14 43 23 W 1007,1 20
03.12.2018 22:00:00 10,8 8,3 25 14 - - W 1005,2 20
03.12.2018 21:00:00 11,6 8,6 29 16 40 21 WZW 1003,6 20

tt = temperatuur
td = dauwpunt
ff = windsnelheid
fx = windstoten
dd = windrichting
ppp = luchtdruk
vv = zicht

Weerstations in de omgeving